Brookhaven, MS

8:46 PM CDT on October 22, 2017 (GMT -0500)
Brookhaven

Weather History for K1R7 - February, 2013

Change the Weather History Date:

Wednesday, February 20, 2013

  Actual Average (KMCB) Record (KMCB)
Temperature  
Mean Temperature 44 °F -  
Max Temperature 55 °F 66 °F 82 °F (1986)
Min Temperature 33 °F 42 °F 19 °F (1978)
Degree Days  
Heating Degree Days 21    
Moisture  
Dew Point 30 °F    
Average Humidity 59    
Maximum Humidity 100    
Minimum Humidity 33    
Precipitation  
Precipitation 0.00 in - - ()
Sea Level Pressure  
Sea Level Pressure 30.19 in    
Wind  
Wind Speed 3 mph (ENE)    
Max Wind Speed 9 mph    
Max Gust Speed 16 mph    
Visibility 10 miles    
Events      
Averages and records for this station are not official NWS values.
T = Trace of Precipitation, MM = Missing Value Source: NWS Daily Summary

Daily Weather History Graph

Daily Weather History Graph

Search for Another Location

Airport or City:

Trip Planner

Search our weather history database for the weather conditions in past years. The results will help you decide how hot, cold, wet, or windy it might be!

Date:

Astronomy

Feb. 20, 2013 Rise Set
Actual Time 6:38 AM CST 5:52 PM CST
Civil Twilight 6:13 AM CST 6:17 PM CST
Nautical Twilight 5:45 AM CST 6:45 PM CST
Astronomical Twilight 5:16 AM CST 7:14 PM CST
Moon 1:25 PM CST (2/20) 2:47 AM CST (2/20)
Length of Visible Light 12h 04m
Length of Day
11h 14m
Waxing Gibbous, 76% of the Moon is Illuminated
Feb 20
Waxing Gibbous
Feb 25
Full
Mar 4
Last Quarter
Mar 11
New
Mar 19
First Quarter

Hourly Weather History & Observations

Time (CST) Temp. Windchill Dew Point Humidity Pressure Visibility Wind Dir Wind Speed Gust Speed Precip Events Conditions
12:15 AM 41.0 °F - 32.0 °F 70% 30.26 in 10.0 mi Calm Calm - N/A   Clear
12:35 AM 39.2 °F 37.0 °F 32.0 °F 75% 30.26 in 10.0 mi North 3.5 mph - N/A   Clear
12:55 AM 39.2 °F - 32.0 °F 75% 30.27 in 10.0 mi Calm Calm - N/A   Clear
1:15 AM 37.4 °F - 33.8 °F 87% 30.26 in 10.0 mi Calm Calm - N/A   Clear
1:35 AM 37.4 °F - 33.8 °F 87% 30.27 in 10.0 mi Calm Calm - N/A   Clear
1:55 AM 37.4 °F - 33.8 °F 87% 30.28 in 10.0 mi Calm Calm - N/A   Clear
2:15 AM 35.6 °F - 33.8 °F 93% 30.26 in 10.0 mi Calm Calm - N/A   Clear
2:35 AM 33.8 °F 29.6 °F 33.8 °F 100% 30.24 in 10.0 mi NNE 4.6 mph - N/A   Clear
2:55 AM 37.4 °F - 32.0 °F 81% 30.23 in 10.0 mi Calm Calm - N/A   Clear
3:15 AM 37.4 °F - 32.0 °F 81% 30.22 in 10.0 mi Calm Calm - N/A   Clear
3:35 AM 37.4 °F - 32.0 °F 81% 30.21 in 10.0 mi Calm Calm - N/A   Clear
3:55 AM 37.4 °F 33.8 °F 30.2 °F 75% 30.19 in 10.0 mi NE 4.6 mph - N/A   Clear
4:15 AM 37.4 °F - 30.2 °F 75% 30.18 in 10.0 mi Calm Calm - N/A   Clear
4:35 AM 37.4 °F 34.9 °F 32.0 °F 81% 30.18 in 10.0 mi NNE 3.5 mph - N/A   Clear
5:15 AM 37.4 °F - 32.0 °F 81% 30.22 in 10.0 mi Calm Calm - N/A   Clear
5:35 AM 37.4 °F - 32.0 °F 81% 30.23 in 10.0 mi Calm Calm - N/A   Clear
5:55 AM 35.6 °F - 32.0 °F 87% 30.25 in 10.0 mi Calm Calm - N/A   Clear
6:15 AM 37.4 °F 34.9 °F 32.0 °F 81% 30.24 in 10.0 mi NNE 3.5 mph - N/A   Clear
6:35 AM 37.4 °F - 30.2 °F 75% 30.24 in 10.0 mi Calm Calm - N/A   Clear
6:55 AM 35.6 °F - 32.0 °F 87% 30.27 in 10.0 mi Calm Calm - N/A   Clear
7:15 AM 35.6 °F - 33.8 °F 93% 30.27 in 10.0 mi Calm Calm - N/A   Clear
7:35 AM 37.4 °F - 32.0 °F 81% 30.26 in 10.0 mi Calm Calm - N/A   Clear
7:55 AM 39.2 °F 37.0 °F 32.0 °F 75% 30.26 in 10.0 mi ENE 3.5 mph - N/A   Clear
8:15 AM 42.8 °F 40.1 °F 32.0 °F 66% 30.28 in 10.0 mi NE 4.6 mph - N/A   Clear
8:35 AM 44.6 °F 40.2 °F 30.2 °F 57% 30.28 in 10.0 mi East 8.1 mph - N/A   Clear
8:55 AM 44.6 °F 40.7 °F 30.2 °F 57% 30.28 in 10.0 mi ENE 6.9 mph - N/A   Partly Cloudy
9:35 AM 46.4 °F 42.4 °F 30.2 °F 53% 30.28 in 10.0 mi East 8.1 mph - N/A   Mostly Cloudy
9:55 AM 46.4 °F 42.4 °F 30.2 °F 53% 30.28 in 10.0 mi NE 8.1 mph - N/A   Scattered Clouds
10:15 AM 46.4 °F 43.5 °F 28.4 °F 50% 30.28 in 10.0 mi East 5.8 mph - N/A   Scattered Clouds
10:35 AM 46.4 °F 42.9 °F 28.4 °F 50% 30.27 in 10.0 mi East 6.9 mph - N/A   Partly Cloudy
10:55 AM 46.4 °F 44.3 °F 28.4 °F 50% 30.26 in 10.0 mi ENE 4.6 mph - N/A   Clear
11:15 AM 48.2 °F - 28.4 °F 46% 30.25 in 10.0 mi ENE 5.8 mph - N/A   Clear
11:35 AM 46.4 °F 43.5 °F 26.6 °F 46% 30.22 in 10.0 mi ENE 5.8 mph - N/A   Clear
11:55 AM 48.2 °F - 28.4 °F 46% 30.18 in 9.0 mi ENE 9.2 mph - N/A   Clear
12:15 PM 50.0 °F - 28.4 °F 43% 30.18 in 10.0 mi ENE 6.9 mph 16.1 mph N/A   Clear
12:35 PM 51.8 °F - 28.4 °F 41% 30.19 in 10.0 mi East 9.2 mph - N/A   Clear
12:55 PM 51.8 °F - 26.6 °F 38% 30.21 in 10.0 mi NE 5.8 mph - N/A   Clear
1:15 PM 51.8 °F - 28.4 °F 41% 30.18 in 10.0 mi ESE 6.9 mph - N/A   Clear
1:35 PM 53.6 °F - 28.4 °F 38% 30.16 in 10.0 mi ENE 8.1 mph - N/A   Clear
1:55 PM 53.6 °F - 26.6 °F 35% 30.14 in 10.0 mi ENE 5.8 mph - N/A   Clear
2:15 PM 53.6 °F - 26.6 °F 35% 30.14 in 10.0 mi ENE 6.9 mph - N/A   Clear
2:55 PM 55.4 °F - 28.4 °F 36% 30.15 in 10.0 mi East 5.8 mph - N/A   Clear
3:15 PM 55.4 °F - 26.6 °F 33% 30.15 in 10.0 mi East 5.8 mph - N/A   Clear
3:35 PM 55.4 °F - 26.6 °F 33% 30.15 in 10.0 mi ENE 5.8 mph - N/A   Partly Cloudy
3:55 PM 55.4 °F - 26.6 °F 33% 30.16 in 10.0 mi ENE 4.6 mph - N/A   Mostly Cloudy
4:15 PM 55.4 °F - 26.6 °F 33% 30.15 in 10.0 mi NNE 5.8 mph - N/A   Mostly Cloudy
4:35 PM 55.4 °F - 26.6 °F 33% 30.14 in 10.0 mi NE 6.9 mph - N/A   Scattered Clouds
4:55 PM 53.6 °F - 26.6 °F 35% 30.14 in 10.0 mi ENE 4.6 mph - N/A   Clear
5:15 PM 53.6 °F - 28.4 °F 38% 30.14 in 10.0 mi NE 3.5 mph - N/A   Scattered Clouds
5:55 PM 50.0 °F - 28.4 °F 43% 30.10 in 10.0 mi East 5.8 mph - N/A   Scattered Clouds
6:15 PM 48.2 °F - 30.2 °F 50% 30.10 in 10.0 mi East 3.5 mph - N/A   Clear
6:35 PM 48.2 °F - 30.2 °F 50% 30.10 in 10.0 mi East 4.6 mph - N/A   Clear
6:55 PM 48.2 °F - 30.2 °F 50% 30.11 in 10.0 mi Calm Calm - N/A   Mostly Cloudy
7:35 PM 46.4 °F - 30.2 °F 53% 30.11 in 10.0 mi Calm Calm - N/A   Mostly Cloudy
7:55 PM 46.4 °F - 30.2 °F 53% 30.12 in 10.0 mi Calm Calm - N/A   Partly Cloudy
8:15 PM 44.6 °F - 30.2 °F 57% 30.11 in 10.0 mi Calm Calm - N/A   Clear
8:35 PM 46.4 °F 45.2 °F 30.2 °F 53% 30.11 in 10.0 mi East 3.5 mph - N/A   Mostly Cloudy
8:55 PM 46.4 °F - 30.2 °F 53% 30.12 in 10.0 mi Calm Calm - N/A   Mostly Cloudy
9:35 PM 46.4 °F 43.5 °F 30.2 °F 53% 30.09 in 10.0 mi ENE 5.8 mph - N/A   Mostly Cloudy
9:55 PM 46.4 °F - 30.2 °F 53% 30.10 in 10.0 mi Calm Calm - N/A   Scattered Clouds
10:15 PM 44.6 °F - 30.2 °F 57% 30.10 in 10.0 mi Calm Calm - N/A   Mostly Cloudy
10:35 PM 44.6 °F 42.2 °F 30.2 °F 57% 30.08 in 10.0 mi East 4.6 mph - N/A   Overcast
10:55 PM 44.6 °F 42.2 °F 30.2 °F 57% 30.07 in 10.0 mi East 4.6 mph - N/A   Mostly Cloudy
11:15 PM 44.6 °F 42.2 °F 28.4 °F 53% 30.08 in 10.0 mi East 4.6 mph - N/A   Overcast
11:35 PM 46.4 °F - 28.4 °F 50% 30.09 in 10.0 mi Calm Calm - N/A   Overcast
11:55 PM 46.4 °F 45.2 °F 28.4 °F 50% 30.09 in 10.0 mi East 3.5 mph - N/A   Overcast